Location: Czekanka
(50.4925°N, 19.2643°E)
Time: 11:57:25
(UTC+00:00)

AQUA - Pass Details

Date: 15 June 2024
Orbit: 693 x 696 km, 98.3° (Epoch: 16 July)

Event Time Altitude Azimuth Distance (km) Brightness Sun altitude
Rises 01:12:35 0° 16° (NNE) 3,086 8.8 -9.2°
Reaches altitude 10° 01:14:51 10° 19° (NNE) 2,164 7.8 -9.0°
Maximum altitude 01:19:35 68° 103° (ESE) 750 4.1 -8.5°
Drops below altitude 10° 01:24:16 10° 186° (S) 2,146 5.8 -8.1°
Enters shadow 01:25:02 - 188° (S) 2,458 6.1 -8.0°
